Location: Asbacherhof
(48.8543°N, 10.7903°E)
Time: 22:30:50
(UTC+00:00)

ATLAS 5 CENTAUR R/B - Pass Details

Date: 26 May 2022
Orbit: 341 x 13895 km, 60.8° (Epoch: 27 June)

Event Time Altitude Azimuth Distance (km) Brightness Sun altitude
Rises 00:03:31 0° 316° (NW) 8,689 8.4 -19.2°
Reaches altitude 10° 00:11:31 10° 314° (NW) 5,702 7.3 -18.9°
Maximum altitude 00:22:50 46° 246° (WSW) 1,320 3.4 -18.4°
Enters shadow 00:24:31 33° 197° (SSW) 1,316 3.1 -18.3°
